TimeCDT,TemperatureF,Dew PointF,Humidity,Sea Level PressureIn,VisibilityMPH,Wind Direction,Wind SpeedMPH,Gust SpeedMPH,PrecipitationIn,Events,Conditions,WindDirDegrees,DateUTC
12:53 AM,72.0,68.0,87,30.16,10.0,South,10.4,-,N/A,,Overcast,170,2013-04-27 05:53:00
1:53 AM,72.0,68.0,87,30.16,10.0,South,5.8,-,N/A,,Overcast,170,2013-04-27 06:53:00
2:50 AM,71.6,68.0,88,30.11,10.0,South,5.8,-,N/A,,Overcast,170,2013-04-27 07:50:00
2:53 AM,72.0,68.0,87,30.14,10.0,South,5.8,-,N/A,,Mostly Cloudy,190,2013-04-27 07:53:00
3:10 AM,71.6,68.0,88,30.12,10.0,South,4.6,-,N/A,,Mostly Cloudy,190,2013-04-27 08:10:00
3:16 AM,71.6,68.0,88,30.11,10.0,South,4.6,-,N/A,,Overcast,180,2013-04-27 08:16:00
3:29 AM,71.6,68.0,88,30.10,10.0,South,5.8,-,N/A,,Mostly Cloudy,170,2013-04-27 08:29:00
3:46 AM,71.6,66.2,83,30.10,10.0,South,6.9,-,N/A,,Partly Cloudy,170,2013-04-27 08:46:00
3:53 AM,71.1,66.9,87,30.12,10.0,South,6.9,-,N/A,,Partly Cloudy,170,2013-04-27 08:53:00
4:53 AM,70.0,66.9,90,30.11,9.0,SW,4.6,-,N/A,,Partly Cloudy,220,2013-04-27 09:53:00
5:07 AM,69.8,66.2,88,30.09,9.0,SW,3.5,-,N/A,,Scattered Clouds,220,2013-04-27 10:07:00
5:22 AM,69.8,66.2,88,30.10,8.0,WSW,3.5,-,N/A,,Mostly Cloudy,240,2013-04-27 10:22:00
5:29 AM,69.8,66.2,88,30.09,8.0,Variable,3.5,-,N/A,,Mostly Cloudy,0,2013-04-27 10:29:00
5:36 AM,69.8,66.2,88,30.09,8.0,SSW,4.6,-,N/A,,Mostly Cloudy,210,2013-04-27 10:36:00
5:44 AM,69.8,66.2,88,30.09,8.0,Variable,3.5,-,N/A,,Mostly Cloudy,0,2013-04-27 10:44:00
5:53 AM,70.0,66.9,90,30.12,9.0,SSW,4.6,-,N/A,,Mostly Cloudy,210,2013-04-27 10:53:00
6:00 AM,69.8,66.2,88,30.09,9.0,SSW,3.5,-,N/A,,Scattered Clouds,200,2013-04-27 11:00:00
6:08 AM,69.8,66.2,88,30.08,8.0,South,4.6,-,N/A,,Mostly Cloudy,170,2013-04-27 11:08:00
6:17 AM,69.8,66.2,88,30.08,7.0,South,3.5,-,N/A,,Scattered Clouds,180,2013-04-27 11:17:00
6:53 AM,69.1,66.9,93,30.12,6.0,Calm,Calm,-,N/A,,Scattered Clouds,0,2013-04-27 11:53:00
7:00 AM,69.8,66.2,88,30.10,6.0,Calm,Calm,-,N/A,,Mostly Cloudy,0,2013-04-27 12:00:00
7:09 AM,69.8,66.2,88,30.10,5.0,Calm,Calm,-,N/A,,Mostly Cloudy,0,2013-04-27 12:09:00
7:24 AM,69.8,66.2,88,30.12,5.0,Calm,Calm,-,N/A,,Mostly Cloudy,0,2013-04-27 12:24:00
7:37 AM,69.8,68.0,94,30.11,6.0,SSE,4.6,-,N/A,,Partly Cloudy,150,2013-04-27 12:37:00
7:53 AM,71.1,68.0,90,30.14,8.0,South,5.8,-,N/A,,Scattered Clouds,170,2013-04-27 12:53:00
8:17 AM,71.6,69.8,94,30.13,10.0,SSW,3.5,-,N/A,,Mostly Cloudy,200,2013-04-27 13:17:00
8:53 AM,73.9,68.0,82,30.15,10.0,SSW,5.8,-,N/A,,Mostly Cloudy,210,2013-04-27 13:53:00
9:12 AM,75.2,66.2,73,30.13,10.0,SSW,8.1,-,N/A,,Mostly Cloudy,210,2013-04-27 14:12:00
9:19 AM,73.4,66.2,78,30.13,10.0,SSW,6.9,-,N/A,,Mostly Cloudy,200,2013-04-27 14:19:00
9:44 AM,75.2,66.2,73,30.12,10.0,South,9.2,-,N/A,,Overcast,190,2013-04-27 14:44:00
9:53 AM,77.0,66.9,71,30.16,10.0,SSW,8.1,-,N/A,,Mostly Cloudy,200,2013-04-27 14:53:00
10:12 AM,77.0,66.2,69,30.13,10.0,South,8.1,18.4,N/A,,Scattered Clouds,180,2013-04-27 15:12:00
10:43 AM,78.8,66.2,65,30.13,10.0,South,6.9,-,N/A,,Mostly Cloudy,190,2013-04-27 15:43:00
10:53 AM,77.0,64.9,66,30.17,10.0,South,5.8,-,N/A,,Mostly Cloudy,190,2013-04-27 15:53:00
11:11 AM,78.8,66.2,65,30.14,10.0,SSW,5.8,-,N/A,,Mostly Cloudy,210,2013-04-27 16:11:00
11:53 AM,78.1,66.0,66,30.16,10.0,South,9.2,-,N/A,,Scattered Clouds,190,2013-04-27 16:53:00
12:53 PM,79.0,66.9,66,30.15,10.0,SSW,8.1,-,N/A,,Mostly Cloudy,210,2013-04-27 17:53:00
1:53 PM,77.0,66.0,69,30.14,10.0,SSW,6.9,-,N/A,,Overcast,210,2013-04-27 18:53:00
2:53 PM,78.1,66.0,66,30.10,10.0,SSW,8.1,-,N/A,,Scattered Clouds,200,2013-04-27 19:53:00
3:53 PM,75.9,66.9,74,30.09,10.0,South,6.9,-,N/A,,Overcast,180,2013-04-27 20:53:00
4:53 PM,75.0,68.0,79,30.08,10.0,South,5.8,-,N/A,,Overcast,190,2013-04-27 21:53:00
5:04 PM,73.4,68.0,83,30.05,10.0,SSW,6.9,-,N/A,Thunderstorm,Overcast,200,2013-04-27 22:04:00
5:21 PM,73.4,68.0,83,30.05,10.0,South,5.8,-,N/A,,Overcast,180,2013-04-27 22:21:00
5:53 PM,73.9,68.0,82,30.06,10.0,South,4.6,-,N/A,,Scattered Clouds,170,2013-04-27 22:53:00
6:53 PM,73.0,69.1,87,30.05,10.0,South,3.5,-,N/A,,Overcast,180,2013-04-27 23:53:00
7:53 PM,72.0,69.1,91,30.05,10.0,SSE,4.6,-,0.00,Rain,Light Rain,150,2013-04-28 00:53:00
8:53 PM,72.0,69.1,91,30.07,8.0,SW,4.6,-,0.02,Rain,Light Rain,220,2013-04-28 01:53:00
9:46 PM,71.6,69.8,94,30.06,7.0,SSW,6.9,-,0.04,Rain,Light Rain,210,2013-04-28 02:46:00
9:51 PM,71.6,69.8,94,30.06,7.0,SSW,8.1,-,0.04,Rain,Light Rain,210,2013-04-28 02:51:00
9:53 PM,72.0,70.0,93,30.09,8.0,SW,8.1,-,0.04,Rain,Light Rain,220,2013-04-28 02:53:00
10:00 PM,71.6,69.8,94,30.06,8.0,SW,6.9,-,0.01,Rain,Light Rain,220,2013-04-28 03:00:00
10:07 PM,71.6,69.8,94,30.06,8.0,SSW,8.1,-,0.01,Rain,Light Rain,210,2013-04-28 03:07:00
10:14 PM,71.6,69.8,94,30.06,8.0,SSW,10.4,-,0.01,Rain,Light Rain,200,2013-04-28 03:14:00
10:19 PM,71.6,69.8,94,30.05,9.0,SSW,8.1,-,0.01,Rain,Light Rain,200,2013-04-28 03:19:00
10:53 PM,72.0,69.1,91,30.07,9.0,SSW,6.9,-,0.01,,Mostly Cloudy,200,2013-04-28 03:53:00
11:01 PM,71.6,69.8,94,30.04,8.0,South,9.2,-,0.00,Rain,Light Rain,190,2013-04-28 04:01:00
11:10 PM,71.6,69.8,94,30.02,8.0,South,11.5,-,0.00,Rain,Light Rain,170,2013-04-28 04:10:00
11:53 PM,72.0,69.1,91,30.02,10.0,SSW,10.4,18.4,0.02,,Scattered Clouds,210,2013-04-28 04:53:00